Location: Penum?ka
(16.4840°N, 80.5772°E)
Time: 14:23:37
(UTC+00:00)

Cosmos 1898 Rocket - Pass Details

Date: 19 May 2025
Orbit: 750 x 779 km, 74.0° (Epoch: 17 June)

Event Time Altitude Azimuth Distance (km) Brightness Sun altitude
Rises 14:39:18 0° 346° (NNW) 3,197 7.4 -21.8°
Reaches altitude 10° 14:41:39 10° 346° (NNW) 2,275 6.5 -22.3°
Maximum altitude 14:46:48 88° 262° (W) 762 3.4 -23.3°
Enters shadow 14:48:07 52° 169° (S) 938 3.6 -23.6°
